Location: Podia
(1.5569°N, 32.3469°E)
Time: 15:01:33
(UTC+00:00)

BLOCK DM-SL R/B - Pass Details

Date: 01 June 2020
Orbit: 300 x 32708 km, 3.0° (Epoch: 04 July)

Event Time Altitude Azimuth Distance (km) Brightness Sun altitude
Rises 17:19:45 0° 274° (W) 2,554 6.5 -20.4°
Reaches altitude 10° 17:22:06 10° 278° (W) 1,256 4.7 -20.9°
Enters shadow 17:23:28 31° 290° (WNW) 550 2.5 -21.2°
